Weather History for PACD - April, 2013

Change the Weather History Date:

Tuesday, April 9, 2013

  Actual Average Record
Temperature  
Mean Temperature 23 °F 33 °F  
Max Temperature 27 °F 38 °F 50 °F (1967)
Min Temperature 18 °F 28 °F 12 °F (1988)
Degree Days  
Heating Degree Days 42 32  
Month to date heating degree days 293 298  
Since 1 July heating degree days 7761 7601  
Cooling Degree Days 0    
Month to date cooling degree days 0  
Year to date cooling degree days 0  
Moisture  
Dew Point 13 °F    
Average Humidity 0    
Maximum Humidity 0    
Minimum Humidity 0    
Precipitation  
Precipitation T in 0.08 in 1.09 in (1998)
Month to date precipitation 0.70 0.73  
Year to date precipitation 10.32 9.57  
Snow  
Snow T in 0.30 in 4.20 in (2000)
Month to date snowfall 1.5 2.8  
Since 1 July snowfall 63.6 68.0  
Snow Depth T in    
Sea Level Pressure  
Sea Level Pressure 29.87 in    
Wind  
Wind Speed 20 mph (NW)    
Max Wind Speed 26 mph    
Max Gust Speed 31 mph    
Visibility 5 miles    
Events Snow    
T = Trace of Precipitation, MM = Missing Value Source: NWS Daily Summary

Daily Weather History Graph

Daily Weather History Graph

Search for Another Location

Airport or City:

Trip Planner

Search our weather history database for the weather conditions in past years. The results will help you decide how hot, cold, wet, or windy it might be!

Date:

Astronomy

Apr. 09, 2013 Rise Set
Actual Time 8:00 AM AKDT 9:45 PM AKDT
Civil Twilight 7:22 AM AKDT 10:23 PM AKDT
Nautical Twilight 6:34 AM AKDT 11:11 PM AKDT
Astronomical Twilight 5:40 AM AKDT 12:06 AM AKDT
Moon 7:33 AM AKDT (4/9) 9:36 PM AKDT (4/9)
Length of Visible Light 15h 01m
Length of Day
13h 44m
Waning Crescent, 0% of the Moon is Illuminated
Apr 9
Waning Crescent
Apr 10
New
Apr 18
First Quarter
Apr 25
Full
May 2
Last Quarter

Hourly Weather History & Observations

Time (AKDT) Temp. Windchill Dew Point Humidity Pressure Visibility Wind Dir Wind Speed Gust Speed Precip Events Conditions
12:49 AM 19.4 °F 4.5 °F 12.2 °F 74% 29.86 in 6.0 mi NW 17.3 mph 26.5 mph 0.00 in Snow Light Snow
12:53 AM 19.9 °F 4.8 °F 10.9 °F 68% 29.87 in 7.0 mi NNW 18.4 mph - 0.00 in Snow Light Snow
1:11 AM 19.4 °F 2.1 °F 12.2 °F 74% 29.86 in 4.0 mi NNW 24.2 mph - 0.00 in Snow Light Snow
1:14 AM 19.4 °F 3.6 °F 12.2 °F 74% 29.86 in 1.8 mi NNW 19.6 mph - 0.00 in Snow Light Snow
1:23 AM 19.4 °F 3.6 °F 12.2 °F 74% 29.86 in 4.0 mi NW 19.6 mph 26.5 mph 0.00 in Snow Light Snow
1:42 AM 19.4 °F 3.6 °F 10.4 °F 68% 29.86 in 9.0 mi NW 19.6 mph - 0.00 in   Overcast
1:53 AM 19.9 °F 4.3 °F 12.0 °F 71% 29.87 in 10.0 mi NNW 19.6 mph 25.3 mph 0.00 in Snow Light Snow
1:58 AM 19.4 °F 2.8 °F 12.2 °F 74% 29.87 in 2.0 mi NNW 21.9 mph 27.6 mph 0.00 in Snow Light Snow
2:05 AM 19.4 °F 5.5 °F 14.0 °F 80% 29.86 in 1.5 mi NNW 15.0 mph 27.6 mph 0.00 in Snow Light Snow
2:08 AM 19.4 °F 2.8 °F 12.2 °F 74% 29.86 in 4.0 mi NNW 21.9 mph 26.5 mph 0.00 in Snow Light Snow
2:42 AM 19.4 °F 4.1 °F 10.4 °F 68% 29.85 in 9.0 mi NW 18.4 mph - 0.00 in   Mostly Cloudy
2:53 AM 19.9 °F 4.8 °F 9.0 °F 62% 29.86 in 10.0 mi NW 18.4 mph - 0.00 in   Overcast
3:51 AM 19.4 °F 2.5 °F 12.2 °F 74% 29.85 in 4.0 mi NW 23.0 mph - 0.00 in Snow Light Snow
3:53 AM 19.0 °F 2.4 °F 12.0 °F 74% 29.86 in 2.5 mi NW 21.9 mph - 0.00 in Snow Light Snow
4:10 AM 19.4 °F 2.8 °F 12.2 °F 74% 29.84 in 5.0 mi NNW 21.9 mph 29.9 mph 0.00 in Snow Light Snow
4:32 AM 19.4 °F 3.6 °F 10.4 °F 68% 29.84 in 9.0 mi NW 19.6 mph - 0.00 in   Mostly Cloudy
4:42 AM 19.4 °F 2.1 °F 12.2 °F 74% 29.84 in 1.8 mi NW 24.2 mph 29.9 mph 0.00 in Snow Light Snow
4:51 AM 19.4 °F 2.1 °F 14.0 °F 80% 29.84 in 0.8 mi NW 24.2 mph 29.9 mph 0.00 in Snow Light Snow
4:53 AM 19.0 °F 2.0 °F 14.0 °F 81% 29.85 in 1.0 mi NW 23.0 mph 29.9 mph 0.00 in Snow Light Snow
5:02 AM 19.4 °F 3.2 °F 14.0 °F 80% 29.84 in 3.0 mi NNW 20.7 mph - 0.00 in Snow Light Snow
5:22 AM 19.4 °F 3.2 °F 10.4 °F 68% 29.84 in 5.0 mi NW 20.7 mph - 0.00 in Snow Light Snow
5:53 AM 19.0 °F 2.4 °F 12.9 °F 77% 29.84 in 2.5 mi NW 21.9 mph 28.8 mph 0.00 in Snow Light Snow
6:06 AM 19.4 °F 2.8 °F 10.4 °F 68% 29.83 in 6.0 mi NW 21.9 mph 27.6 mph 0.00 in Snow Light Snow
6:18 AM 19.4 °F 3.6 °F 10.4 °F 68% 29.83 in 9.0 mi NW 19.6 mph 29.9 mph 0.00 in   Overcast
6:53 AM 19.9 °F 3.5 °F 9.0 °F 62% 29.85 in 9.0 mi NW 21.9 mph - 0.00 in Snow Light Snow
7:17 AM 19.4 °F 3.2 °F 12.2 °F 74% 29.84 in 1.8 mi WNW 20.7 mph - 0.00 in Snow Light Snow
7:25 AM 19.4 °F 2.8 °F 14.0 °F 80% 29.84 in 2.5 mi NW 21.9 mph - 0.00 in Snow Light Snow
7:28 AM 19.4 °F 3.6 °F 12.2 °F 74% 29.84 in 3.0 mi WNW 19.6 mph - 0.00 in Snow Light Snow
7:41 AM 19.4 °F 2.5 °F 8.6 °F 63% 29.83 in 9.0 mi WNW 23.0 mph - 0.00 in   Overcast
7:53 AM 19.0 °F 1.6 °F 9.0 °F 65% 29.85 in 10.0 mi NW 24.2 mph - 0.00 in   Overcast
8:37 AM 19.4 °F 3.2 °F 10.4 °F 68% 29.85 in 1.8 mi NW 20.7 mph - 0.00 in Snow Light Snow
8:44 AM 19.4 °F 3.6 °F 12.2 °F 74% 29.85 in 2.0 mi NW 19.6 mph - 0.00 in Snow Light Snow
8:51 AM 19.4 °F 2.5 °F 12.2 °F 74% 29.85 in 1.8 mi NW 23.0 mph 27.6 mph 0.00 in Snow Light Snow
8:53 AM 19.0 °F 2.7 °F 12.0 °F 74% 29.85 in 1.8 mi NW 20.7 mph 27.6 mph 0.00 in Snow Light Snow
9:07 AM 19.4 °F 2.5 °F 10.4 °F 68% 29.85 in 3.0 mi NW 23.0 mph - 0.00 in Snow Light Snow
9:14 AM 17.6 °F 0.1 °F 12.2 °F 79% 29.85 in 1.8 mi NW 23.0 mph - 0.00 in Snow Light Snow
9:24 AM 19.4 °F 3.6 °F 12.2 °F 74% 29.85 in 3.0 mi NW 19.6 mph - 0.00 in Snow Light Snow
9:38 AM 19.4 °F 4.1 °F 10.4 °F 68% 29.85 in 7.0 mi NW 18.4 mph - 0.00 in Snow Light Snow
9:53 AM 19.0 °F 3.6 °F 12.0 °F 74% 29.86 in 1.5 mi NW 18.4 mph - 0.00 in Snow Light Snow
10:00 AM 19.4 °F 3.6 °F 12.2 °F 74% 29.85 in 1.0 mi NW 19.6 mph - 0.00 in Snow Light Snow
10:11 AM 19.4 °F 4.1 °F 12.2 °F 74% 29.85 in 3.0 mi NW 18.4 mph - 0.00 in Snow Light Snow
10:29 AM 19.4 °F 3.6 °F 10.4 °F 68% 29.85 in 9.0 mi NW 19.6 mph - 0.00 in   Overcast
10:53 AM 19.9 °F 4.8 °F 12.0 °F 71% 29.86 in 2.0 mi NW 18.4 mph - 0.00 in Snow Light Snow
10:56 AM 19.4 °F 3.6 °F 12.2 °F 74% 29.86 in 1.5 mi NW 19.6 mph - 0.00 in Snow Light Snow
11:05 AM 19.4 °F 4.1 °F 12.2 °F 74% 29.86 in 3.0 mi WNW 18.4 mph - 0.00 in Snow Light Snow
11:25 AM 19.4 °F 3.2 °F 12.2 °F 74% 29.86 in 1.8 mi NW 20.7 mph - 0.00 in Snow Light Snow
11:35 AM 21.2 °F 5.6 °F 12.2 °F 68% 29.86 in 3.0 mi WNW 20.7 mph - 0.00 in Snow Light Snow
11:53 AM 21.0 °F 6.2 °F 12.9 °F 71% 29.87 in 3.0 mi WNW 18.4 mph - 0.00 in Snow Light Snow
11:55 AM 21.2 °F 6.0 °F 12.2 °F 68% 29.86 in 2.0 mi WNW 19.6 mph - 0.00 in Snow Light Snow
11:57 AM 21.2 °F 5.6 °F 14.0 °F 74% 29.86 in 2.0 mi WNW 20.7 mph - 0.00 in Snow Light Snow
12:04 PM 21.2 °F 6.0 °F 12.2 °F 68% 29.86 in 3.0 mi WNW 19.6 mph - 0.00 in Snow Light Snow
12:19 PM 21.2 °F 5.2 °F 14.0 °F 74% 29.86 in 1.8 mi WNW 21.9 mph - 0.00 in Snow Light Snow
12:20 PM 21.2 °F 6.0 °F 14.0 °F 74% 29.86 in 3.0 mi WNW 19.6 mph - 0.00 in Snow Light Snow
12:53 PM 23.0 °F 7.2 °F 12.9 °F 65% 29.87 in 8.0 mi NW 23.0 mph 29.9 mph 0.00 in Snow Light Snow
1:32 PM 21.2 °F 6.8 °F 14.0 °F 74% 29.87 in 2.5 mi NW 17.3 mph - 0.00 in Snow Light Snow
1:45 PM 23.0 °F 7.6 °F 14.0 °F 68% 29.87 in 4.0 mi NW 21.9 mph - 0.00 in Snow Light Snow
1:53 PM 23.0 °F 8.0 °F 14.0 °F 68% 29.88 in 5.0 mi NW 20.7 mph - 0.00 in Snow Light Snow
2:27 PM 23.0 °F 8.0 °F 15.8 °F 74% 29.87 in 1.8 mi NW 20.7 mph - 0.00 in Snow Light Snow
2:36 PM 23.0 °F 8.7 °F 17.6 °F 80% 29.87 in 0.8 mi NW 18.4 mph - 0.00 in Snow Light Snow
2:45 PM 23.0 °F 8.0 °F 17.6 °F 80% 29.87 in 4.0 mi NW 20.7 mph - 0.00 in Snow Light Snow
2:53 PM 23.0 °F 8.0 °F 15.1 °F 72% 29.87 in 5.0 mi NW 20.7 mph 26.5 mph 0.00 in Snow Light Snow
3:23 PM 23.0 °F 8.0 °F 15.8 °F 74% 29.87 in 1.8 mi WNW 20.7 mph - 0.00 in Snow Light Snow
3:28 PM 23.0 °F 8.0 °F 15.8 °F 74% 29.87 in 0.8 mi WNW 20.7 mph - 0.00 in Snow Light Snow
3:38 PM 24.8 °F 9.6 °F 17.6 °F 74% 29.87 in 2.0 mi WNW 23.0 mph 28.8 mph 0.00 in Snow Light Snow
3:41 PM 24.8 °F 10.0 °F 15.8 °F 69% 29.87 in 2.5 mi NW 21.9 mph 28.8 mph 0.00 in Snow Light Snow
3:51 PM 23.0 °F 8.3 °F 15.8 °F 74% 29.87 in 3.0 mi NW 19.6 mph - 0.00 in Snow Light Snow
3:53 PM 23.0 °F 8.3 °F 16.0 °F 74% 29.88 in 3.0 mi WNW 19.6 mph - 0.00 in Snow Light Snow
4:35 PM 26.6 °F 12.4 °F 15.8 °F 64% 29.88 in 10.0 mi WNW 21.9 mph - 0.00 in   Overcast
4:53 PM 24.1 °F 9.8 °F 15.1 °F 69% 29.88 in 8.0 mi WNW 19.6 mph 27.6 mph 0.00 in Snow Light Snow
5:21 PM 24.8 °F 10.7 °F 15.8 °F 69% 29.87 in 6.0 mi NW 19.6 mph - 0.00 in Snow Light Snow
5:53 PM 26.1 °F 12.3 °F 16.0 °F 66% 29.88 in 5.0 mi WNW 19.6 mph 25.3 mph 0.00 in Snow Light Snow
6:00 PM 26.6 °F 12.0 °F 15.8 °F 64% 29.87 in 9.0 mi WNW 23.0 mph 26.5 mph 0.00 in   Overcast
6:28 PM 24.8 °F 10.3 °F 14.0 °F 64% 29.87 in 10.0 mi WNW 20.7 mph - 0.00 in   Overcast
6:53 PM 25.0 °F 11.3 °F 16.0 °F 69% 29.88 in 6.0 mi WNW 18.4 mph - 0.00 in Snow Light Snow
7:01 PM 26.6 °F 12.7 °F 15.8 °F 64% 29.88 in 6.0 mi WNW 20.7 mph - 0.00 in Snow Light Snow
7:26 PM 24.8 °F 10.3 °F 17.6 °F 74% 29.89 in 1.2 mi WNW 20.7 mph - 0.00 in Snow Light Snow
7:38 PM 24.8 °F 11.1 °F 15.8 °F 69% 29.89 in 4.0 mi WNW 18.4 mph 24.2 mph 0.00 in Snow Light Snow
7:53 PM 25.0 °F 10.6 °F 16.0 °F 69% 29.90 in 7.0 mi WNW 20.7 mph - 0.00 in Snow Light Snow
8:30 PM 24.8 °F 10.3 °F 12.2 °F 59% 29.90 in 10.0 mi WNW 20.7 mph 27.6 mph 0.00 in   Mostly Cloudy
8:53 PM 24.1 °F 9.0 °F 12.0 °F 60% 29.92 in 10.0 mi WNW 21.9 mph - 0.00 in   Partly Cloudy
9:53 PM 21.9 °F 8.2 °F 12.0 °F 66% 29.93 in 10.0 mi WNW 16.1 mph - N/A   Partly Cloudy
10:12 PM 21.2 °F 7.3 °F 15.8 °F 80% 29.93 in 10.0 mi NW 16.1 mph - N/A   Mostly Cloudy
10:53 PM 23.0 °F 10.1 °F 14.0 °F 68% 29.95 in 9.0 mi WNW 15.0 mph - 0.00 in   Overcast
11:24 PM 21.2 °F 8.9 °F 14.0 °F 74% 29.95 in 8.0 mi WNW 12.7 mph - 0.00 in Snow Light Snow
11:53 PM 23.0 °F 10.6 °F 14.0 °F 68% 29.97 in 10.0 mi WNW 13.8 mph - 0.00 in   Overcast